Miscellaneous Local Product
Issued by NWS Hastings, NE

Home | Current Version | Previous Version | Graphics & Text | Print | Product List | Glossary On
Versions: 1 2 3 4 5 6 7 8 9 10 11 12 13 14 15 16 17 18 19 20 21 22 23 24 25 26 27 28 29 30 31 32 33 34 35 36 37 38 39 40 41 42 43 44 45 46 47 48 49 50
938
AXUS43 KGID 232202
MISGRI

GID CWA HOURLY WEATHER ROUNDUP
NATIONAL WEATHER SERVICE HASTINGS NE
500 PM CDT TUE MAY 23 2017

NOTE: "FAIR" INDICATES FEW OR NO CLOUDS BELOW 12,000 FEET WITH NO
SIGNIFICANT WEATHER AND/OR OBSTRUCTIONS TO VISIBILITY.

...SOUTH CENTRAL NEBRASKA...

CITY           SKY/WX    TMP DP  RH WIND       PRES   REMARKS
GRAND ISLAND   CLOUDY    55  41  59 N21       29.93F
HASTINGS       CLOUDY    55  40  56 NW22G29   29.94S
KEARNEY        CLOUDY    57  39  51 N21G26    29.95F
ORD            PTSUNNY   54  39  57 N28G35    29.94S
YORK           PTSUNNY   55  41  58 NW21      29.90F
AURORA         PTSUNNY   55  40  56 N22G31    29.92S
LEXINGTON      CLOUDY    55  40  56 N22G32    29.98F
HOLDREGE       CLOUDY    54  39  57 N21G30    29.97S
HEBRON         CLOUDY    57  44  61 N24G32    29.90S

...NEBRASKA PANHANDLE...

CITY           SKY/WX    TMP DP  RH WIND       PRES   REMARKS
CHADRON        MOSUNNY   61  38  42 N16G22    30.06F
ALLIANCE       PTSUNNY   59  35  40 N20       30.05F
SCOTTSBLUFF    PTSUNNY   66  33  29 N18G35    30.06F
SIDNEY         PTSUNNY   58  37  45 N17G29    30.07F

...WESTERN AND NORTH CENTRAL NEBRASKA...

CITY           SKY/WX    TMP DP  RH WIND       PRES   REMARKS
VALENTINE      CLOUDY    57  37  47 N17G28    30.00S
AINSWORTH      CLOUDY    54  42  65 N17G25    29.98F
ONEILL         CLOUDY    53  41  63 N17G25    29.95F
BROKEN BOW     CLOUDY    56  39  53 N25G37    29.96F
IMPERIAL       CLOUDY    60  33  36 N17G32    30.02F
NORTH PLATTE   NOT AVBL
MCCOOK         CLOUDY    61  35  37 N35G43    29.99S

...EASTERN NEBRASKA...

CITY           SKY/WX    TMP DP  RH WIND       PRES   REMARKS
NORFOLK        CLOUDY    56  43  61 NW22G29   29.87F
SO SIOUX CITY  PTSUNNY   59  48  67 N17       29.83F
TEKAMAH        LGT RAIN  55  47  74 N9        29.83F
ALBION         CLOUDY    56  41  57 NW15G23   29.91S
OMAHA EPPLEY   PTSUNNY   57  44  62 NW14G25   29.83F
OFFUTT AFB     CLOUDY    58  44  60 NW12      29.82F
MILLARD        CLOUDY    59  46  62 NW10G16   29.84F
LINCOLN        CLOUDY    59  44  57 NW22      29.87F
NEBRASKA CITY  CLOUDY    61  40  47 N14G20    29.83F
BEATRICE       CLOUDY    58  45  62 N20G25    29.87S
FALLS CITY     NOT AVBL

...NORTHERN KANSAS...

CITY           SKY/WX    TMP DP  RH WIND       PRES   REMARKS
GOODLAND       CLOUDY    57  38  48 NW22G29   30.02F
HILL CITY      PTSUNNY   64  35  34 N25G35    29.97S
NORTON         CLOUDY    61  30  31 NW26G37   29.96F
PHILLIPSBURG   CLOUDY    59  39  47 NW17G23   29.96S
SMITH CENTER   CLOUDY    57  41  54 NW23      29.94S
HAYS           CLOUDY    63  40  42 N23       29.94F
RUSSELL        NOT AVBL
CONCORDIA      CLOUDY    56  44  64 NW15G21   29.90S
SALINA         CLOUDY    64  43  46 NW20G36   29.89F
TOPEKA         CLOUDY    57  51  80 NW18G28   29.83R



USA.gov is the U.S. government's official web portal to all federal, state and local government web resources and services.